User: anonymous   Login
Location: Unspecified
(0.0000°N, 0.0000°E)
Time: 23:42:19
(UTC+02:00)
Language:

Cosmos 1295 Rocket - Orbit

View from above orbital plane
View from above orbital plane
View from above satellite
View from above satellite

Ground track
Ground track

The orbit data is extracted from the following two-line orbital elements,

1 12682U 81077B   14294.75929541  .00000134  00000-0  11667-3 0  8007
2 12682 082.9203 021.1695 0034457 180.9476 335.4058 13.78463743669305
Epoch (UTC): 21 October 2014 18:13:23
Eccentricity: 0.0034457
inclination: 82.9203°
perigee height: 944 km
apogee height: 994 km
right ascension of ascending node: 21.1695°
argument of perigee: 180.9476°
revolutions per day: 13.78463743
mean anomaly at epoch: 335.4058°
orbit number at epoch: 66930

The dashed part of the orbit path shows where the satellite is in the earth's shadow,  

DLR